Regional Weather Roundup
Issued by NWS

Home | Current Version | Previous Version | Text Only | Print | Product List | Glossary On
Versions: 1 2 3 4 5 6 7 8 9 10 11 12 13 14 15 16 17 18 19 20 21 22 23 24 25 26 27 28 29 30 31 32 33 34 35 36 37 38 39 40 41 42 43 44 45 46 47 48 49 50
000
ASUS45 KCYS 182010
RWRWY

WYOMING REGIONAL WEATHER ROUNDUP
NATIONAL WEATHER SERVICE CHEYENNE WY
100 PM MST WED JAN 18 2017

NOTE:  "FAIR" INDICATES FEW OR NO CLOUDS BELOW 12,000 FEET
WITH NO SIGNIFICANT WEATHER AND/OR OBSTRUCTIONS TO VISIBILITY.

WYZ001-182100-
YELLOWSTONE NATIONAL PARK

CITY           SKY/WX    TMP DP  RH WIND       PRES   REMARKS
LK YELLOWSTONE   N/A     13   8  81 CALM      29.97F
W YELLOWSTONE  NOT AVBL

$$
WYZ002>013-054>058-071-098>099-182100-
NORTHERN WYOMING

CITY           SKY/WX    TMP DP  RH WIND       PRES   REMARKS
JACKSON        SUNNY      9   7  92 CALM      30.01F
CODY           FAIR      22  14  71 N8        29.74F WCI  12
GREYBULL       FAIR      13   5  70 NW8       29.80F WCI   2
WORLAND        FAIR      28  20  71 SE3       29.79F
SHERIDAN       FAIR      30  19  63 MISG      29.66F
BUFFALO        FAIR      49  27  42 CALM      29.68F
GILLETTE       FAIR      48  22  35 SW12      29.68F
HULETT         FAIR      48  21  34 SW17      29.68F
NEWCASTLE      FAIR      41  21  45 CALM      29.74F

$$
WYZ014>020-022>026-101>103-182100-
CENTRAL WYOMING

CITY           SKY/WX    TMP DP  RH WIND       PRES   REMARKS
BIG PINEY      FAIR       3  -2  79 CALM      29.99F
PINEDALE       FAIR       9   0  66 CALM      29.99F
DUBOIS         NOT AVBL
LANDER         FAIR      21   9  59 CALM      29.87F
RIVERTON       FAIR      13   6  74 N3        29.89F
CASPER         FAIR      41  20  43 SW33G46   29.81F
DOUGLAS        FAIR      57  16  20 W17       29.74F

$$
WYZ021-027>030-104>119-182100-
SOUTHERN WYOMING

CITY           SKY/WX    TMP DP  RH WIND       PRES   REMARKS
EVANSTON       FAIR      23  10  57 SE7       29.98F WCI  15
ROCK SPRINGS   FAIR      10   3  73 CALM      29.98F
RAWLINS        FAIR      32  20  61 CALM      29.96F
LARAMIE        FAIR      22  15  75 NW6       29.88F WCI  14
CHEYENNE       FAIR      55  13  18 W12       29.79F
TORRINGTON     FAIR      52  16  24 CALM      29.75F

$$



USA.gov is the U.S. government's official web portal to all federal, state and local government web resources and services.